Location: Zagreb
(45.8000°N, 16.0000°E)
Time: 00:21:38
(UTC+01:00)

NO-84 - Pass Details

Date: 02 November 2020
Orbit: 323 x 458 km, 55.0° (Epoch: 25 November)

Event Time Altitude Azimuth Distance (km) Brightness Sun altitude
Exits shadow 04:34:05 16° 11° (NNE) 1,169 ? -22.0°
Drops below altitude 10° 04:35:33 10° 38° (NE) 1,438 ? -21.7°
Sets 04:38:06 0° 61° (ENE) 2,259 ? -21.3°
